Weather History for Atwater, CA

Change the Weather History Date:

Wednesday, August 28, 2013

  Actual Average (KMCE) Record (KMCE)
Temperature  
Mean Temperature 79 °F 75 °F  
Max Temperature 96 °F 92 °F 103 °F (2008)
Min Temperature 62 °F 59 °F 50 °F (2010)
Degree Days  
Heating Degree Days 0    
Month to date heating degree days  
Since 1 June heating degree days  
Since 1 July heating degree days  
Cooling Degree Days 14    
Month to date cooling degree days  
Year to date cooling degree days  
Since 1 June cooling degree days  
Growing Degree Days 29 (Base 50)    
Moisture  
Dew Point 54 °F    
Average Humidity 53    
Maximum Humidity 77    
Minimum Humidity 18    
Precipitation  
Precipitation 0.00 in 0.00 in 0.00 in (2014)
Month to date precipitation 0.00  
Year to date precipitation 8.69  
Since 1 July precipitation 0.01  
Snow  
Snow 0.00 in - - ()
Month to date snowfall  
Since 1 June snowfall  
Since 1 July snowfall  
Snow Depth -    
Sea Level Pressure  
Sea Level Pressure 29.84 in    
Wind  
Wind Speed 8 mph (North)    
Max Wind Speed 13 mph    
Max Gust Speed -    
Visibility 10 miles    
Events      
T = Trace of Precipitation, MM = Missing Value Source: NWS Daily Summary

Daily Weather History Graph

Daily Weather History Graph

Search for Another Location

Airport:

Trip Planner

Search our weather history database for the weather conditions in past years. The results will help you decide how hot, cold, wet, or windy it might be!

Date:

Astronomy

Aug. 28, 2013 Rise Set
Actual Time 6:29 AM PDT 7:36 PM PDT
Civil Twilight 6:02 AM PDT 8:03 PM PDT
Nautical Twilight 5:30 AM PDT 8:35 PM PDT
Astronomical Twilight 4:57 AM PDT 9:08 PM PDT
Moon No Moon Rise 2:14 PM PDT (8/28)
Length of Visible Light 14h 00m
Length of Day
13h 06m
Last Quarter, 46% of the Moon is Illuminated
Aug 28
Last Quarter
Sep 5
New
Sep 12
First Quarter
Sep 19
Full
Sep 26
Last Quarter

Hourly Weather History & Observations

Time (PDT) Temp. Heat Index Dew Point Humidity Pressure Visibility Wind Dir Wind Speed Gust Speed Precip Events Conditions
12:15 AM 71.6 °F - 53.6 °F 53% 29.81 in 10.0 mi NNE 6.9 mph - N/A   Clear
12:35 AM 69.8 °F - 53.6 °F 56% 29.81 in 10.0 mi NNE 5.8 mph - N/A   Clear
12:55 AM 68.0 °F - 53.6 °F 60% 29.81 in 10.0 mi North 6.9 mph - N/A   Clear
1:15 AM 68.0 °F - 53.6 °F 60% 29.81 in 10.0 mi North 6.9 mph - N/A   Partly Cloudy
1:35 AM 68.0 °F - 53.6 °F 60% 29.81 in 10.0 mi North 6.9 mph - N/A   Partly Cloudy
1:55 AM 68.0 °F - 53.6 °F 60% 29.81 in 10.0 mi North 6.9 mph - N/A   Clear
2:15 AM 68.0 °F - 51.8 °F 56% 29.81 in 10.0 mi North 8.1 mph - N/A   Partly Cloudy
2:35 AM 68.0 °F - 53.6 °F 60% 29.82 in 10.0 mi North 6.9 mph - N/A   Partly Cloudy
2:55 AM 68.0 °F - 53.6 °F 60% 29.81 in 10.0 mi NNE 9.2 mph - N/A   Scattered Clouds
3:15 AM 66.2 °F - 53.6 °F 64% 29.81 in 10.0 mi North 10.4 mph - N/A   Partly Cloudy
3:35 AM 68.0 °F - 53.6 °F 60% 29.81 in 10.0 mi NNE 9.2 mph - N/A   Clear
3:55 AM 68.0 °F - 53.6 °F 60% 29.81 in 10.0 mi North 11.5 mph - N/A   Clear
4:15 AM 66.2 °F - 53.6 °F 64% 29.81 in 10.0 mi NNE 9.2 mph - N/A   Clear
4:35 AM 66.2 °F - 53.6 °F 64% 29.81 in 10.0 mi North 9.2 mph - N/A   Clear
4:55 AM 66.2 °F - 53.6 °F 64% 29.81 in 10.0 mi NNE 6.9 mph - N/A   Clear
5:15 AM 64.4 °F - 53.6 °F 68% 29.82 in 10.0 mi North 6.9 mph - N/A   Clear
5:35 AM 64.4 °F - 53.6 °F 68% 29.82 in 10.0 mi North 5.8 mph - N/A   Partly Cloudy
5:55 AM 64.4 °F - 53.6 °F 68% 29.83 in 10.0 mi North 5.8 mph - N/A   Partly Cloudy
6:15 AM 62.6 °F - 55.4 °F 77% 29.83 in 10.0 mi North - - N/A   Partly Cloudy
6:35 AM 62.6 °F - 55.4 °F 77% 29.84 in 10.0 mi North 4.6 mph - N/A   Clear
6:45 AM 62.6 °F - 55.4 °F 77% 29.84 in 10.0 mi North 4.6 mph - N/A   Scattered Clouds
6:55 AM 62.6 °F - 55.4 °F 77% 29.85 in 10.0 mi North 4.6 mph - N/A   Clear
7:45 AM 69.8 °F - 55.4 °F 60% 29.86 in 10.0 mi North 9.2 mph - N/A   Partly Cloudy
8:45 AM 73.4 °F - 55.4 °F 53% 29.87 in 10.0 mi North 8.1 mph - N/A   Clear
9:45 AM 78.8 °F - 55.4 °F 44% 29.88 in 10.0 mi North 8.1 mph - N/A   Clear
10:45 AM 82.4 °F 81.4 °F 53.6 °F 37% 29.89 in 10.0 mi NNW 8.1 mph - N/A   Clear
11:45 AM 87.8 °F 85.7 °F 53.6 °F 31% 29.88 in 10.0 mi North 6.9 mph - N/A   Clear
12:45 PM 89.6 °F - 51.8 °F 27% 29.87 in 10.0 mi NNW 9.2 mph - N/A   Clear
1:45 PM 93.2 °F - 50.0 °F 23% 29.85 in 10.0 mi NNW 11.5 mph - N/A   Clear
2:45 PM 96.8 °F - 50.0 °F 20% 29.84 in 10.0 mi NNW 9.2 mph - N/A   Clear
3:45 PM 96.8 °F - 46.4 °F 18% 29.82 in 10.0 mi North 9.2 mph - N/A   Clear
4:48 PM 96.8 °F - 46.4 °F 18% 29.82 in 10.0 mi NNW 9.2 mph - N/A   Clear
5:45 PM 93.2 °F - 51.8 °F 24% 29.81 in 10.0 mi NNW 9.2 mph - N/A   Clear
6:45 PM 89.6 °F - 51.8 °F 27% 29.81 in 10.0 mi NNW 9.2 mph - N/A   Clear
7:45 PM 84.2 °F 82.8 °F 53.6 °F 35% 29.82 in 10.0 mi NNW 9.2 mph - N/A   Clear
8:45 PM 80.6 °F 80.5 °F 55.4 °F 42% 29.84 in 10.0 mi NNW 12.7 mph - N/A   Clear
9:15 PM 78.8 °F - 55.4 °F 44% 29.85 in 10.0 mi North 9.2 mph - N/A   Clear
9:35 PM 78.8 °F - 57.2 °F 47% 29.86 in 10.0 mi North 9.2 mph - N/A   Clear
9:55 PM 75.2 °F - 57.2 °F 53% 29.87 in 10.0 mi North 8.1 mph - N/A   Clear
10:15 PM 75.2 °F - 57.2 °F 53% 29.87 in 10.0 mi North 8.1 mph - N/A   Clear
10:35 PM 75.2 °F - 59.0 °F 57% 29.87 in 10.0 mi North 9.2 mph - N/A   Clear
10:55 PM 75.2 °F - 60.8 °F 61% 29.88 in 10.0 mi North 9.2 mph - N/A   Clear
11:15 PM 73.4 °F - 60.8 °F 65% 29.88 in 10.0 mi North 8.1 mph - N/A   Clear
11:35 PM 71.6 °F - 60.8 °F 69% 29.88 in 10.0 mi North 6.9 mph - N/A   Clear
11:55 PM 71.6 °F - 60.8 °F 69% 29.89 in 10.0 mi NNE 6.9 mph - N/A   Clear